,,Stat6,,Stat2,,Stat8,,Stat9,,Stat10,,Wind1,,Wind1,
time,status,PA1M_AVG,status,PR1M_SUM,status,RH1M_AVG,status,SR1M_AVG,status,TA1M_AVG,status,W1dAve1m,status,W1sAve1m,
2004-05-16, 00:00:01,VALID,918.149,VALID,0,VALID,94.4472,VALID,-0.0339617,VALID,21.5969,VALID,13,VALID,1.09121,
2004-05-16, 00:01:00,VALID,918.131,VALID,0,VALID,94.3912,VALID,-0.0679233,VALID,21.6042,VALID,19,VALID,1.05078,
2004-05-16, 00:02:00,VALID,918.109,VALID,0,VALID,94.4383,VALID,-0.0679233,VALID,21.5974,VALID,21,VALID,0.977083,
2004-05-16, 00:03:00,VALID,918.093,VALID,0,VALID,94.3022,VALID,-0.0509425,VALID,21.5939,VALID,21,VALID,1.01823,
2004-05-16, 00:04:01,VALID,918.077,VALID,0,VALID,94.3073,VALID,0.0509425,VALID,21.5735,VALID,4,VALID,0.579167,
2004-05-16, 00:05:00,VALID,918.037,VALID,0,VALID,94.5095,VALID,0.0679233,VALID,21.5506,VALID,355,VALID,0.565476,
2004-05-16, 00:06:00,VALID,918,VALID,0,VALID,94.573,VALID,0.0679233,VALID,21.55,VALID,19,VALID,1.13434,
2004-05-16, 00:07:00,VALID,917.955,VALID,0,VALID,94.6239,VALID,0.0679233,VALID,21.5409,VALID,22,VALID,1.26116,
2004-05-16, 00:08:00,VALID,917.931,VALID,0,VALID,94.6379,VALID,0.0509425,VALID,21.5212,VALID,12,VALID,1.29528,
2004-05-16, 00:09:01,VALID,917.905,VALID,0,VALID,94.6226,VALID,0.0849042,VALID,21.5059,VALID,10,VALID,1.33921,
2004-05-16, 00:10:00,VALID,917.872,VALID,0,VALID,94.732,VALID,0.0509425,VALID,21.4801,VALID,19,VALID,1.08984,
2004-05-16, 00:11:00,VALID,917.865,VALID,0,VALID,94.7892,VALID,0.0169808,VALID,21.4502,VALID,27,VALID,0.928961,
2004-05-16, 00:12:00,VALID,917.864,VALID,0,VALID,94.7015,VALID,0,VALID,21.4416,VALID,4,VALID,0.633185,
2004-05-16, 00:13:01,VALID,917.853,VALID,0,VALID,95.027,VALID,0.0339617,VALID,21.402,VALID,319,VALID,0.509722,
2004-05-16, 00:14:00,VALID,917.84,VALID,0,VALID,95.3055,VALID,0.0509425,VALID,21.4055,VALID,280,VALID,0.408346,
2004-05-16, 00:15:00,VALID,917.824,VALID,0,VALID,95.5102,VALID,0.0339617,VALID,21.4084,VALID,280,VALID,0.239025,
2004-05-16, 00:16:01,VALID,917.813,VALID,0,VALID,95.5891,VALID,0.0679233,VALID,21.4251,VALID,285,VALID,0.23274,
2004-05-16, 00:17:00,VALID,917.792,VALID,0,VALID,95.5115,VALID,0.0169808,VALID,21.4254,VALID,299,VALID,0.190518,
2004-05-16, 00:18:00,VALID,917.806,VALID,0,VALID,95.261,VALID,0.0339617,VALID,21.4152,VALID,14,VALID,0.644231,
2004-05-16, 00:19:01,VALID,917.79,VALID,0,VALID,95.055,VALID,-0.0339617,VALID,21.4106,VALID,23,VALID,1.12035,
2004-05-16, 00:20:01,VALID,917.794,VALID,0,VALID,95.1529,VALID,-0.0849042,VALID,21.3783,VALID,27,VALID,1.19318,
2004-05-16, 00:21:00,VALID,917.795,VALID,0,VALID,95.1186,VALID,-0.0509425,VALID,21.3659,VALID,27,VALID,1.07865,
2004-05-16, 00:22:01,VALID,917.773,VALID,0,VALID,95.2572,VALID,-0.0509425,VALID,21.356,VALID,32,VALID,0.975347,
2004-05-16, 00:23:00,VALID,917.749,VALID,0,VALID,95.1758,VALID,-0.0849042,VALID,21.3455,VALID,32,VALID,1.11659,
2004-05-16, 00:24:01,VALID,917.744,VALID,0,VALID,95.1084,VALID,-0.0509425,VALID,21.349,VALID,49,VALID,0.573946,
2004-05-16, 00:25:00,VALID,917.747,VALID,0,VALID,95.0054,VALID,-0.0509425,VALID,21.3358,VALID,58,VALID,0.612749,
2004-05-16, 00:26:00,VALID,917.732,VALID,0,VALID,94.9685,VALID,-0.0509425,VALID,21.3433,VALID,75,VALID,0.646763,
2004-05-16, 00:27:00,VALID,917.73,VALID,0,VALID,95.0067,VALID,-0.0339617,VALID,21.3269,VALID,119,VALID,0.786285,
2004-05-16, 00:28:00,VALID,917.723,VALID,0,VALID,95.1147,VALID,-0.0849042,VALID,21.2849,VALID,153,VALID,0.765443,
2004-05-16, 00:29:01,VALID,917.725,VALID,0,VALID,95.4301,VALID,-0.0679233,VALID,21.2424,VALID,146,VALID,0.860764,
2004-05-16, 00:30:01,VALID,917.71,VALID,0,VALID,95.631,VALID,-0.0849042,VALID,21.2329,VALID,148,VALID,0.797619,
2004-05-16, 00:31:00,VALID,917.715,VALID,0,VALID,95.9731,VALID,-0.0339617,VALID,21.2165,VALID,141,VALID,1.00692,
2004-05-16, 00:32:01,VALID,917.718,VALID,0,VALID,96.2808,VALID,-0.0169808,VALID,21.2198,VALID,145,VALID,0.754616,
2004-05-16, 00:33:00,VALID,917.714,VALID,0,VALID,96.3419,VALID,-0.0509425,VALID,21.2101,VALID,147,VALID,0.65625,
2004-05-16, 00:34:00,VALID,917.697,VALID,0,VALID,96.4309,VALID,0.0339617,VALID,21.1963,VALID,135,VALID,0.744978,
2004-05-16, 00:35:00,VALID,917.661,VALID,0,VALID,96.633,VALID,0.0509425,VALID,21.1665,VALID,122,VALID,0.833891,
2004-05-16, 00:36:00,VALID,917.64,VALID,0,VALID,96.8123,VALID,0,VALID,21.1635,VALID,124,VALID,0.753634,
2004-05-16, 00:37:01,VALID,917.624,VALID,0,VALID,97.0578,VALID,0.0169808,VALID,21.1536,VALID,125,VALID,1.18979,
2004-05-16, 00:38:01,VALID,917.616,VALID,0,VALID,97.1684,VALID,0.0169808,VALID,21.177,VALID,120,VALID,0.648047,
2004-05-16, 00:39:00,VALID,917.597,VALID,0,VALID,97.1976,VALID,0,VALID,21.1894,VALID,99,VALID,0.387277,
2004-05-16, 00:40:00,VALID,917.556,VALID,0,VALID,97.0692,VALID,0.0509425,VALID,21.2152,VALID,114,VALID,0.501999,
2004-05-16, 00:41:00,VALID,917.542,VALID,0,VALID,97.0196,VALID,0.0339617,VALID,21.2321,VALID,146,VALID,0.157924,
2004-05-16, 00:42:00,VALID,917.522,VALID,0,VALID,96.9459,VALID,0.0339617,VALID,21.2416,VALID,146,VALID,0,
2004-05-16, 00:43:00,VALID,917.515,VALID,0,VALID,96.8836,VALID,0.0339617,VALID,21.2413,VALID,146,VALID,0.179878,
2004-05-16, 00:44:00,VALID,917.515,VALID,0,VALID,96.9179,VALID,0,VALID,21.2311,VALID,146,VALID,0.297053,
2004-05-16, 00:45:00,VALID,917.501,VALID,0,VALID,96.9293,VALID,0,VALID,21.248,VALID,146,VALID,0.455669,
2004-05-16, 00:46:01,VALID,917.489,VALID,0,VALID,96.9331,VALID,0,VALID,21.2545,VALID,146,VALID,0.639672,
2004-05-16, 00:47:00,VALID,917.488,VALID,0,VALID,96.9331,VALID,0,VALID,21.241,VALID,136,VALID,0.317827,
2004-05-16, 00:48:00,VALID,917.488,VALID,0,VALID,96.8645,VALID,0.0169808,VALID,21.2413,VALID,121,VALID,0.499256,
2004-05-16, 00:49:01,VALID,917.502,VALID,0,VALID,96.8823,VALID,0,VALID,21.2343,VALID,121,VALID,0.3125,
2004-05-16, 00:50:01,VALID,917.485,VALID,0,VALID,96.8963,VALID,0.0169808,VALID,21.2284,VALID,121,VALID,0.472656,
2004-05-16, 00:51:01,VALID,917.458,VALID,0,VALID,96.8963,VALID,0.0339617,VALID,21.212,VALID,121,VALID,0.595486,
2004-05-16, 00:52:01,VALID,917.409,VALID,0,VALID,96.8327,VALID,0.0509425,VALID,21.2028,VALID,119,VALID,0.68564,
2004-05-16, 00:53:01,VALID,917.374,VALID,0,VALID,96.9115,VALID,0.0339617,VALID,21.1772,VALID,115,VALID,0.501524,
2004-05-16, 00:54:00,VALID,917.369,VALID,0,VALID,97.0183,VALID,0.0169808,VALID,21.1603,VALID,115,VALID,0.308594,
2004-05-16, 00:55:00,VALID,917.348,VALID,0,VALID,97.0616,VALID,0.0339617,VALID,21.1573,VALID,115,VALID,0.2519,
2004-05-16, 00:56:00,VALID,917.344,VALID,0,VALID,97.0845,VALID,0.0339617,VALID,21.1541,VALID,115,VALID,0.089939,
2004-05-16, 00:57:01,VALID,917.327,VALID,0,VALID,97.115,VALID,0.0169808,VALID,21.164,VALID,115,VALID,0.165365,
2004-05-16, 00:58:01,VALID,917.305,VALID,0,VALID,97.045,VALID,0.0339617,VALID,21.1705,VALID,115,VALID,0.498857,
2004-05-16, 00:59:00,VALID,917.288,VALID,0,VALID,96.8645,VALID,0.0509425,VALID,21.1743,VALID,115,VALID,0.686047,
2004-05-16, 01:00:00,VALID,917.281,VALID,0,VALID,96.9853,VALID,0,VALID,21.1576,VALID,115,VALID,0.867188,
2004-05-16, 01:01:00,VALID,917.276,VALID,0,VALID,97.0311,VALID,0,VALID,21.1385,VALID,115,VALID,0.806868,
2004-05-16, 01:02:00,VALID,917.26,VALID,0,VALID,97.1582,VALID,0,VALID,21.1285,VALID,115,VALID,0.868331,
2004-05-16, 01:03:01,VALID,917.249,VALID,0,VALID,97.2498,VALID,0.0169808,VALID,21.1387,VALID,115,VALID,0.730664,
2004-05-16, 01:04:01,VALID,917.244,VALID,0,VALID,97.1862,VALID,-0.0849042,VALID,21.1299,VALID,115,VALID,0.513889,
2004-05-16, 01:05:01,VALID,917.225,VALID,0,VALID,97.1277,VALID,-0.101885,VALID,21.1465,VALID,121,VALID,0.34013,
2004-05-16, 01:06:00,VALID,917.21,VALID,0,VALID,97.012,VALID,-0.101885,VALID,21.1492,VALID,135,VALID,0.125355,
2004-05-16, 01:07:00,VALID,917.183,VALID,0,VALID,96.9802,VALID,-0.118866,VALID,21.1527,VALID,135,VALID,0.108803,
2004-05-16, 01:08:00,VALID,917.179,VALID,0,VALID,96.9217,VALID,-0.118866,VALID,21.1753,VALID,135,VALID,0.182292,
2004-05-16, 01:09:00,VALID,917.168,VALID,0,VALID,96.8416,VALID,-0.101885,VALID,21.1885,VALID,135,VALID,0.29415,
2004-05-16, 01:10:00,VALID,917.139,VALID,0,VALID,96.7081,VALID,-0.101885,VALID,21.185,VALID,135,VALID,0.412674,
2004-05-16, 01:11:00,VALID,917.14,VALID,0,VALID,96.6203,VALID,-0.101885,VALID,21.195,VALID,135,VALID,0.567951,
2004-05-16, 01:12:00,VALID,917.122,VALID,0,VALID,96.5771,VALID,-0.101885,VALID,21.2014,VALID,135,VALID,0.7625,
2004-05-16, 01:13:00,VALID,917.115,VALID,0,VALID,96.544,VALID,-0.0849042,VALID,21.2047,VALID,134,VALID,0.849826,
2004-05-16, 01:14:00,VALID,917.092,VALID,0,VALID,96.5351,VALID,-0.118866,VALID,21.1883,VALID,109,VALID,1.02077,
2004-05-16, 01:15:00,VALID,917.088,VALID,0,VALID,96.5517,VALID,-0.101885,VALID,21.1791,VALID,93,VALID,1.20052,
2004-05-16, 01:16:01,VALID,917.063,VALID,0,VALID,96.2172,VALID,-0.0849042,VALID,21.1398,VALID,86,VALID,1.32395,
2004-05-16, 01:17:01,VALID,917.072,VALID,0,VALID,95.7544,VALID,-0.0849042,VALID,21.1498,VALID,78,VALID,0.781424,
2004-05-16, 01:18:00,VALID,917.066,VALID,0,VALID,95.5051,VALID,-0.101885,VALID,21.1565,VALID,347,VALID,0.491071,
2004-05-16, 01:19:01,VALID,917.078,VALID,0,VALID,95.7302,VALID,-0.0169808,VALID,21.1161,VALID,269,VALID,0.890997,
2004-05-16, 01:20:00,VALID,917.062,VALID,0,VALID,96.2121,VALID,0.0169808,VALID,21.1199,VALID,280,VALID,0.824855,
2004-05-16, 01:21:00,VALID,917.048,VALID,0,VALID,96.5784,VALID,0.0169808,VALID,21.0771,VALID,281,VALID,0.412348,
2004-05-16, 01:22:00,VALID,917.029,VALID,0,VALID,96.7627,VALID,0.0169808,VALID,21.0575,VALID,281,VALID,0.00666921,
2004-05-16, 01:23:01,VALID,917.023,VALID,0,VALID,96.6229,VALID,0,VALID,21.0518,VALID,172,VALID,0.564808,
2004-05-16, 01:24:01,VALID,916.995,VALID,0,VALID,96.6394,VALID,0,VALID,21.0222,VALID,125,VALID,0.830305,
2004-05-16, 01:25:01,VALID,916.974,VALID,0,VALID,96.717,VALID,0.0339617,VALID,21.0413,VALID,115,VALID,0.860156,
2004-05-16, 01:26:01,VALID,916.942,VALID,0,VALID,96.8123,VALID,0.0169808,VALID,21.0483,VALID,98,VALID,0.975038,
2004-05-16, 01:27:01,VALID,916.943,VALID,0,VALID,96.7093,VALID,0.0169808,VALID,21.0545,VALID,90,VALID,0.830729,
2004-05-16, 01:28:00,VALID,916.951,VALID,0,VALID,96.5606,VALID,0,VALID,21.0384,VALID,80,VALID,0.726172,
2004-05-16, 01:29:01,VALID,916.947,VALID,0,VALID,96.216,VALID,0,VALID,21.0163,VALID,102,VALID,0.690341,
2004-05-16, 01:30:01,VALID,916.94,VALID,0,VALID,95.9566,VALID,0,VALID,20.9832,VALID,107,VALID,0.603795,
2004-05-16, 01:31:01,VALID,916.939,VALID,0,VALID,96.0405,VALID,0,VALID,20.9511,VALID,120,VALID,0.628089,
2004-05-16, 01:32:01,VALID,916.922,VALID,0,VALID,96.1575,VALID,0,VALID,20.9186,VALID,124,VALID,0.743712,
2004-05-16, 01:33:01,VALID,916.902,VALID,0,VALID,96.4474,VALID,0.0169808,VALID,20.8771,VALID,127,VALID,0.804874,
2004-05-16, 01:34:01,VALID,916.889,VALID,0,VALID,96.8212,VALID,-0.0169808,VALID,20.8655,VALID,127,VALID,0.731957,
2004-05-16, 01:35:01,VALID,916.872,VALID,0,VALID,96.9064,VALID,-0.0509425,VALID,20.8389,VALID,127,VALID,0.817969,
2004-05-16, 01:36:01,VALID,916.865,VALID,0,VALID,97.1519,VALID,-0.0169808,VALID,20.8066,VALID,124,VALID,0.840511,
2004-05-16, 01:37:01,VALID,916.856,VALID,0,VALID,97.4138,VALID,-0.0339617,VALID,20.8036,VALID,115,VALID,0.697311,
2004-05-16, 01:38:01,VALID,916.854,VALID,0,VALID,97.2956,VALID,-0.0509425,VALID,20.8039,VALID,112,VALID,0.419588,
2004-05-16, 01:39:01,VALID,916.856,VALID,0,VALID,97.0361,VALID,-0.0169808,VALID,20.784,VALID,112,VALID,0.0753472,
2004-05-16, 01:40:01,VALID,916.865,VALID,0,VALID,95.9553,VALID,-0.0509425,VALID,20.6844,VALID,86,VALID,0.240916,
2004-05-16, 01:41:01,VALID,916.871,VALID,0,VALID,95.5496,VALID,-0.0849042,VALID,20.5525,VALID,25,VALID,0.720881,
2004-05-16, 01:42:01,VALID,916.877,VALID,0,VALID,95.9934,VALID,-0.0339617,VALID,20.4551,VALID,13,VALID,0.811198,
2004-05-16, 01:43:00,VALID,916.869,VALID,0,VALID,96.7004,VALID,-0.0169808,VALID,20.397,VALID,13,VALID,0.575838,
2004-05-16, 01:44:01,VALID,916.856,VALID,0,VALID,97.026,VALID,-0.0169808,VALID,20.3485,VALID,13,VALID,0.404615,
2004-05-16, 01:45:01,VALID,916.843,VALID,0,VALID,97.204,VALID,-0.0339617,VALID,20.3033,VALID,13,VALID,0.349702,
2004-05-16, 01:46:01,VALID,916.833,VALID,0,VALID,97.4303,VALID,-0.0679233,VALID,20.2678,VALID,44,VALID,0.523438,
2004-05-16, 01:47:01,VALID,916.825,VALID,0,VALID,97.8945,VALID,-0.0169808,VALID,20.274,VALID,63,VALID,0.537287,
2004-05-16, 01:48:01,VALID,916.815,VALID,0,VALID,98.3014,VALID,0,VALID,20.31,VALID,67,VALID,0.538872,
2004-05-16, 01:49:01,VALID,916.794,VALID,0,VALID,98.2302,VALID,0.0509425,VALID,20.3125,VALID,77,VALID,0.599432,
2004-05-16, 01:50:01,VALID,916.781,VALID,0,VALID,98.2251,VALID,0.0509425,VALID,20.3182,VALID,82,VALID,0.520419,
2004-05-16, 01:51:01,VALID,916.772,VALID,0,VALID,98.0293,VALID,0.0679233,VALID,20.2827,VALID,82,VALID,0.629464,
2004-05-16, 01:52:01,VALID,916.751,VALID,0,VALID,98.7172,VALID,0.0509425,VALID,20.3381,VALID,91,VALID,0.800114,
2004-05-16, 01:53:01,VALID,916.731,VALID,0,VALID,98.5201,VALID,0.0339617,VALID,20.3572,VALID,94,VALID,0.791295,
2004-05-16, 01:54:01,VALID,916.719,VALID,0,VALID,98.5315,VALID,0.0169808,VALID,20.3577,VALID,104,VALID,0.896434,
2004-05-16, 01:55:01,VALID,916.707,VALID,0,VALID,98.6078,VALID,0.0679233,VALID,20.3669,VALID,103,VALID,1.08689,
2004-05-16, 01:56:01,VALID,916.708,VALID,0,VALID,98.8088,VALID,0.0509425,VALID,20.3768,VALID,106,VALID,1.14211,
2004-05-16, 01:57:01,VALID,916.698,VALID,0,VALID,98.9664,VALID,0.0509425,VALID,20.3863,VALID,109,VALID,1.04993,
2004-05-16, 01:58:01,VALID,916.706,VALID,0,VALID,99.086,VALID,0,VALID,20.4059,VALID,108,VALID,1.15197,
2004-05-16, 01:59:01,VALID,916.696,VALID,0,VALID,99.2449,VALID,0.0169808,VALID,20.4282,VALID,101,VALID,1.08558,
2004-05-16, 02:00:01,VALID,916.683,VALID,0,VALID,98.8723,VALID,0.0339617,VALID,20.3965,VALID,81,VALID,0.420387,
2004-05-16, 02:01:01,VALID,916.664,VALID,0,VALID,98.2887,VALID,0.0679233,VALID,20.3028,VALID,70,VALID,0.487537,
2004-05-16, 02:02:01,VALID,916.634,VALID,0,VALID,98.5506,VALID,0.0509425,VALID,20.2638,VALID,79,VALID,0.588889,
2004-05-16, 02:03:01,VALID,916.613,VALID,0,VALID,98.3942,VALID,0.0339617,VALID,20.2546,VALID,79,VALID,0.477095,
2004-05-16, 02:04:01,VALID,916.596,VALID,0,VALID,98.5061,VALID,0,VALID,20.2392,VALID,110,VALID,0.869093,
2004-05-16, 02:05:01,VALID,916.59,VALID,0,VALID,98.7643,VALID,-0.0339617,VALID,20.2201,VALID,121,VALID,0.800495,
2004-05-16, 02:06:01,VALID,916.594,VALID,0,VALID,99.1788,VALID,-0.0339617,VALID,20.2487,VALID,124,VALID,1.01886,
2004-05-16, 02:07:01,VALID,916.602,VALID,0,VALID,99.2398,VALID,-0.0169808,VALID,20.2651,VALID,125,VALID,1.05316,
2004-05-16, 02:08:01,VALID,916.612,VALID,0,VALID,99.2754,VALID,-0.0509425,VALID,20.2683,VALID,124,VALID,0.894985,
2004-05-16, 02:09:01,VALID,916.631,VALID,0,VALID,99.1381,VALID,-0.0509425,VALID,20.2489,VALID,118,VALID,0.79707,
2004-05-16, 02:10:01,VALID,916.636,VALID,0,VALID,99.2119,VALID,0,VALID,20.2554,VALID,116,VALID,0.815589,
2004-05-16, 02:11:01,VALID,916.62,VALID,0,VALID,99.147,VALID,-0.0169808,VALID,20.239,VALID,122,VALID,0.698038,
2004-05-16, 02:12:00,VALID,916.63,VALID,0,VALID,99.0923,VALID,-0.0339617,VALID,20.2462,VALID,119,VALID,0.314317,
2004-05-16, 02:13:00,VALID,916.623,VALID,0,VALID,98.9906,VALID,-0.0339617,VALID,20.2467,VALID,118,VALID,0.204545,
2004-05-16, 02:14:00,VALID,916.61,VALID,0,VALID,98.9105,VALID,-0.0169808,VALID,20.2204,VALID,118,VALID,0.241824,
2004-05-16, 02:15:00,VALID,916.585,VALID,0,VALID,98.8838,VALID,-0.0339617,VALID,20.2171,VALID,127,VALID,0.767187,
2004-05-16, 02:16:00,VALID,916.558,VALID,0,VALID,98.8088,VALID,-0.0339617,VALID,20.2335,VALID,119,VALID,0.837695,
2004-05-16, 02:17:00,VALID,916.566,VALID,0,VALID,98.7643,VALID,-0.0509425,VALID,20.2392,VALID,118,VALID,0.845526,
2004-05-16, 02:18:00,VALID,916.563,VALID,0,VALID,98.6307,VALID,-0.0679233,VALID,20.2788,VALID,118,VALID,0.48125,
2004-05-16, 02:19:00,VALID,916.549,VALID,0,VALID,98.1297,VALID,-0.0339617,VALID,20.2594,VALID,118,VALID,0.240767,
2004-05-16, 02:20:00,VALID,916.545,VALID,0,VALID,97.1824,VALID,0,VALID,20.1719,VALID,118,VALID,0,
2004-05-16, 02:21:00,VALID,916.527,VALID,0,VALID,96.6623,VALID,0,VALID,20.0783,VALID,118,VALID,0.000585938,
2004-05-16, 02:22:00,VALID,916.516,VALID,0,VALID,96.7182,VALID,0,VALID,20.014,VALID,118,VALID,0.000390625,
2004-05-16, 02:23:00,VALID,916.502,VALID,0,VALID,97.101,VALID,-0.0169808,VALID,20.004,VALID,118,VALID,0,
2004-05-16, 02:24:00,VALID,916.492,VALID,0,VALID,97.3998,VALID,-0.0339617,VALID,19.9911,VALID,118,VALID,0.00053267,
2004-05-16, 02:25:00,VALID,916.476,VALID,0,VALID,97.3642,VALID,0,VALID,19.9879,VALID,118,VALID,0.262784,
2004-05-16, 02:26:00,VALID,916.497,VALID,0,VALID,96.97,VALID,-0.0169808,VALID,19.9332,VALID,116,VALID,0.424679,
2004-05-16, 02:27:00,VALID,916.52,VALID,0,VALID,97.1086,VALID,-0.0339617,VALID,19.8719,VALID,116,VALID,0.297828,
2004-05-16, 02:28:00,VALID,916.528,VALID,0,VALID,97.3909,VALID,-0.0339617,VALID,19.853,VALID,116,VALID,0.141352,
2004-05-16, 02:29:00,VALID,916.549,VALID,0,VALID,97.3019,VALID,0,VALID,19.7976,VALID,116,VALID,0.166921,
2004-05-16, 02:30:00,VALID,916.569,VALID,0,VALID,97.3223,VALID,-0.0169808,VALID,19.7427,VALID,116,VALID,0.21968,
2004-05-16, 02:31:00,VALID,916.569,VALID,0,VALID,97.8004,VALID,0,VALID,19.7462,VALID,116,VALID,0.309896,
2004-05-16, 02:32:00,VALID,916.58,VALID,0,VALID,98.1742,VALID,0,VALID,19.772,VALID,116,VALID,0.135603,
2004-05-16, 02:33:00,VALID,916.565,VALID,0,VALID,97.9021,VALID,0.0169808,VALID,19.7395,VALID,116,VALID,0.00585938,
2004-05-16, 02:34:00,VALID,916.553,VALID,0,VALID,97.2205,VALID,0,VALID,19.6463,VALID,116,VALID,0.217348,
2004-05-16, 02:35:00,VALID,916.557,VALID,0,VALID,97.7241,VALID,0.0169808,VALID,19.6106,VALID,115,VALID,0.402435,
2004-05-16, 02:36:00,VALID,916.56,VALID,0,VALID,98.6956,VALID,0,VALID,19.6784,VALID,79,VALID,0.613376,
2004-05-16, 02:37:00,VALID,916.586,VALID,0,VALID,98.9868,VALID,0,VALID,19.743,VALID,56,VALID,0.556141,
2004-05-16, 02:38:00,VALID,916.596,VALID,0,VALID,98.6727,VALID,0,VALID,19.7072,VALID,56,VALID,0.588034,
2004-05-16, 02:39:00,VALID,916.592,VALID,0,VALID,98.777,VALID,-0.0169808,VALID,19.6913,VALID,56,VALID,0.588034,
2004-05-16, 02:40:00,VALID,916.586,VALID,0,VALID,98.9245,VALID,-0.0169808,VALID,19.6846,VALID,59,VALID,0.756288,
2004-05-16, 02:41:00,VALID,916.573,VALID,0,VALID,99.2093,VALID,0,VALID,19.7079,VALID,68,VALID,0.547783,
2004-05-16, 02:42:00,VALID,916.575,VALID,0,VALID,99.3695,VALID,0,VALID,19.7241,VALID,72,VALID,0.59707,
2004-05-16, 02:43:00,VALID,916.557,VALID,0,VALID,99.5196,VALID,0,VALID,19.737,VALID,72,VALID,0.820494,
2004-05-16, 02:44:00,VALID,916.535,VALID,0,VALID,99.6289,VALID,-0.0339617,VALID,19.7464,VALID,72,VALID,0.885016,
2004-05-16, 02:45:00,VALID,916.531,VALID,0,VALID,99.5387,VALID,-0.0339617,VALID,19.7241,VALID,72,VALID,0.838956,
2004-05-16, 02:46:00,VALID,916.531,VALID,0,VALID,99.3161,VALID,-0.0169808,VALID,19.6657,VALID,73,VALID,0.733008,
2004-05-16, 02:47:00,VALID,916.528,VALID,0,VALID,99.1559,VALID,-0.0169808,VALID,19.5912,VALID,76,VALID,0.670015,
2004-05-16, 02:48:00,VALID,916.511,VALID,0,VALID,99.0949,VALID,-0.0339617,VALID,19.5366,VALID,79,VALID,0.426291,
2004-05-16, 02:49:00,VALID,916.497,VALID,0,VALID,98.927,VALID,0,VALID,19.472,VALID,89,VALID,0.579359,
2004-05-16, 02:50:00,VALID,916.472,VALID,0,VALID,99.0427,VALID,-0.0339617,VALID,19.4307,VALID,91,VALID,0.467797,
2004-05-16, 02:51:00,VALID,916.443,VALID,0,VALID,98.6371,VALID,-0.0339617,VALID,19.3306,VALID,79,VALID,0.662064,
2004-05-16, 02:52:00,VALID,916.408,VALID,0,VALID,98.5481,VALID,-0.0509425,VALID,19.2139,VALID,62,VALID,1.08798,
2004-05-16, 02:53:00,VALID,916.388,VALID,0,VALID,99.4675,VALID,0.0169808,VALID,19.2633,VALID,63,VALID,1.28068,
2004-05-16, 02:54:00,VALID,916.385,VALID,0,VALID,99.9517,VALID,0,VALID,19.3334,VALID,66,VALID,1.03789,
2004-05-16, 02:55:00,VALID,916.385,VALID,0,VALID,99.929,VALID,-0.0169808,VALID,19.3205,VALID,62,VALID,0.949886,
2004-05-16, 02:56:00,VALID,916.385,VALID,0,VALID,99.8311,VALID,0,VALID,19.2594,VALID,55,VALID,0.887607,
2004-05-16, 02:57:00,VALID,916.377,VALID,0,VALID,99.9176,VALID,-0.0169808,VALID,19.2109,VALID,53,VALID,0.824396,
2004-05-16, 02:58:00,VALID,916.361,VALID,0,VALID,99.9926,VALID,0,VALID,19.2013,VALID,53,VALID,0.939862,
2004-05-16, 02:59:00,VALID,916.334,VALID,0,VALID,100,VALID,0,VALID,19.2616,VALID,58,VALID,1.06432,
2004-05-16, 03:00:00,VALID,916.343,VALID,0,VALID,100,VALID,0,VALID,19.3272,VALID,73,VALID,0.92016,
2004-05-16, 03:01:00,VALID,916.356,VALID,0,VALID,100,VALID,0,VALID,19.3239,VALID,85,VALID,0.836868,
2004-05-16, 03:02:00,VALID,916.352,VALID,0,VALID,100,VALID,-0.0169808,VALID,19.3331,VALID,83,VALID,0.28468,
2004-05-16, 03:03:00,VALID,916.345,VALID,0,VALID,100,VALID,-0.0169808,VALID,19.3011,VALID,83,VALID,0,
2004-05-16, 03:04:00,VALID,916.334,VALID,0,VALID,100,VALID,0,VALID,19.2579,VALID,83,VALID,0,
2004-05-16, 03:05:00,VALID,916.336,VALID,0,VALID,100,VALID,0.0169808,VALID,19.2199,VALID,83,VALID,0.0550509,
2004-05-16, 03:06:00,VALID,916.331,VALID,0,VALID,100,VALID,0.0169808,VALID,19.1551,VALID,83,VALID,0.307546,
2004-05-16, 03:07:00,VALID,916.325,VALID,0,VALID,100,VALID,0,VALID,19.1101,VALID,83,VALID,0.404883,
2004-05-16, 03:08:00,VALID,916.307,VALID,0,VALID,100,VALID,0.0169808,VALID,19.0553,VALID,89,VALID,0.626488,
2004-05-16, 03:09:00,VALID,916.297,VALID,0,VALID,100,VALID,0,VALID,19.0875,VALID,104,VALID,0.752096,
2004-05-16, 03:10:00,VALID,916.294,VALID,0,VALID,100,VALID,0,VALID,19.1749,VALID,121,VALID,1.0436,
2004-05-16, 03:11:00,VALID,916.29,VALID,0,VALID,100,VALID,0,VALID,19.2393,VALID,122,VALID,1.01918,
2004-05-16, 03:12:00,VALID,916.292,VALID,0,VALID,100,VALID,0,VALID,19.2785,VALID,120,VALID,0.933594,
2004-05-16, 03:13:00,VALID,916.275,VALID,0,VALID,100,VALID,0,VALID,19.3009,VALID,120,VALID,0.886446,
2004-05-16, 03:14:00,VALID,916.252,VALID,0,VALID,100,VALID,0,VALID,19.2775,VALID,108,VALID,1.19513,
2004-05-16, 03:15:00,VALID,916.26,VALID,0,VALID,100,VALID,0.0339617,VALID,19.3098,VALID,104,VALID,0.776344,
2004-05-16, 03:16:00,VALID,916.259,VALID,0,VALID,100,VALID,0.0339617,VALID,19.2778,VALID,122,VALID,0.828819,
2004-05-16, 03:17:00,VALID,916.283,VALID,0,VALID,100,VALID,0,VALID,19.2942,VALID,127,VALID,1.04179,
2004-05-16, 03:18:00,VALID,916.269,VALID,0,VALID,100,VALID,0,VALID,19.3428,VALID,122,VALID,0.885617,
2004-05-16, 03:19:00,VALID,916.264,VALID,0,VALID,99.5572,VALID,-0.0169808,VALID,19.2683,VALID,86,VALID,0.468117,
2004-05-16, 03:20:00,VALID,916.256,VALID,0,VALID,98.8851,VALID,0.0509425,VALID,19.0811,VALID,56,VALID,0.560724,
2004-05-16, 03:21:00,VALID,916.237,VALID,0,VALID,99.0186,VALID,0,VALID,19.0262,VALID,92,VALID,0.510045,
2004-05-16, 03:22:00,VALID,916.23,VALID,0,VALID,99.1368,VALID,0,VALID,19.0105,VALID,91,VALID,0.246875,
2004-05-16, 03:23:00,VALID,916.218,VALID,0,VALID,99.2856,VALID,0,VALID,19.0073,VALID,112,VALID,0.674079,
2004-05-16, 03:24:00,VALID,916.201,VALID,0,VALID,99.6493,VALID,0,VALID,19.0168,VALID,126,VALID,1.01582,
2004-05-16, 03:25:00,VALID,916.194,VALID,0,VALID,99.9512,VALID,0.0169808,VALID,19.0557,VALID,128,VALID,1.19444,
2004-05-16, 03:26:00,VALID,916.177,VALID,0,VALID,100,VALID,0,VALID,19.0783,VALID,127,VALID,1.07467,
2004-05-16, 03:27:00,VALID,916.173,VALID,0,VALID,100,VALID,0,VALID,19.085,VALID,125,VALID,1.06688,
2004-05-16, 03:28:00,VALID,916.18,VALID,0,VALID,100,VALID,-0.0169808,VALID,19.0878,VALID,119,VALID,1.04483,
2004-05-16, 03:29:00,VALID,916.174,VALID,0,VALID,100,VALID,0,VALID,19.1201,VALID,122,VALID,1.06008,
2004-05-16, 03:30:00,VALID,916.17,VALID,0,VALID,100,VALID,-0.0169808,VALID,19.1362,VALID,129,VALID,1.20126,
2004-05-16, 03:31:00,VALID,916.146,VALID,0,VALID,100,VALID,-0.0169808,VALID,19.1325,VALID,135,VALID,1.18586,
2004-05-16, 03:32:00,VALID,916.114,VALID,0,VALID,100,VALID,0,VALID,19.1588,VALID,131,VALID,1.4771,
2004-05-16, 03:33:00,VALID,916.101,VALID,0,VALID,100,VALID,0,VALID,19.1849,VALID,128,VALID,1.48295,
2004-05-16, 03:34:00,VALID,916.075,VALID,0,VALID,100,VALID,0,VALID,19.195,VALID,127,VALID,1.43164,
2004-05-16, 03:35:00,VALID,916.049,VALID,0,VALID,100,VALID,0,VALID,19.1913,VALID,128,VALID,1.41006,